Find Starlink 31639

NORAD ID: 59261 Int'l Des: 2024-050 Owner: SPXS Country: US Constellation: starlink operational
LEOCIRCULAR

当前视图

正在加载3D地球...

About Starlink 31639

Starlink 31639 (NORAD 59261) is a starlink constellation satellite (v2 mini) launched Mar 19, 2024 by SPXS of US. It operates in LEO, CIRCULAR orbit with a mass of 730.00 kg.

关于 Starlink 31639

正在加载描述...

即将过境

Passes for default location (London). Set your location on the main map for personalized predictions.

高度历史

Loading altitude history...

两行轨道根数

1 59261U 24050H 26177.89774971 -.00001381 00000-0 -32782-4 0 9990
2 59261 53.1589 33.3953 0000677 85.0109 275.0969 15.31690922127270
Epoch: Jun 26, 2026 • Age: 14 hours

当前状态

高度 475.7 km
速度 7.63 km/s
星下点 47.81°N, 8.72°W
发射日期 Mar 19, 2024
运行时间 2.2 years
类型 internet

技术详情

分类 Payload
质量 730.00 kg
干质量 700.00 kg
总质量 730.00 kg
长度 0.30 m
直径 4.10 m
跨度 29.00 m
形状 Box + pan
制造商 SPXS
平台类型 Starlink V2M
阶段状态 In Orbit
所有者/国家 SPXS/US

Most Searched